| time (UTC) | temp F | wind direction | speed MPH | gust MPH | rain 1hr in | rain 24hr in | rain mn in | humidity % | barometer mb |
| 20260905014540 | 70 | 333 | 1.0 | 4.0 | 0.00 | 0.34 | 0.02 | 5 | 1011.2 |
| 20260905013035 | 71 | 331 | 1.0 | 3.0 | 0.00 | 0.34 | 0.02 | 6 | 1011.4 |
| 20260905011534 | 71 | 330 | 0.0 | 2.0 | 0.00 | 0.34 | 0.02 | 3 | 1011.2 |
| 20260905010027 | 71 | 317 | 0.0 | 3.0 | 0.00 | 0.34 | 0.02 | 5 | 1011.1 |
| 20260905004524 | 72 | 339 | 0.0 | 2.0 | 0.00 | 0.34 | 0.02 | 10 | 1010.9 |
| 20260905003018 | 72 | 340 | 0.0 | 3.0 | 0.00 | 0.34 | 0.02 | 15 | 1010.7 |
| 20260905001514 | 73 | 344 | 1.0 | 4.0 | 0.00 | 0.34 | 0.02 | 21 | 1010.7 |
| 20260905000009 | 73 | 344 | 1.0 | 5.0 | 0.00 | 0.34 | 0.02 | 27 | 1010.5 |
| 20260904234505 | 74 | 346 | 1.0 | 3.0 | 0.00 | 0.34 | 0.02 | 32 | 1010.5 |
| 20260904233002 | 74 | 346 | 1.0 | 4.0 | 0.00 | 0.34 | 0.02 | 35 | 1010.3 |
| 20260904231557 | 75 | 348 | 0.0 | 4.0 | 0.00 | 0.34 | 0.02 | 39 | 1010.4 |
| 20260904230054 | 76 | 348 | 1.0 | 5.0 | 0.00 | 0.34 | 0.02 | 43 | 1010.1 |
| 20260904224602 | 77 | 315 | 2.0 | 4.0 | 0.00 | 0.34 | 0.02 | 46 | 1010.2 |
| 20260904223049 | 78 | 331 | 2.0 | 5.0 | 0.00 | 0.34 | 0.02 | 47 | 1010.2 |
| 20260904221539 | 78 | 333 | 3.0 | 8.0 | 0.00 | 0.34 | 0.02 | 47 | 1010.1 |
| 20260904220037 | 79 | 333 | 2.0 | 10.0 | 0.00 | 0.34 | 0.02 | 47 | 1010.0 |
| 20260904214540 | 79 | 351 | 3.0 | 9.0 | 0.00 | 0.34 | 0.02 | 47 | 1009.9 |
| 20260904213033 | 79 | 307 | 2.0 | 8.0 | 0.00 | 0.34 | 0.02 | 46 | 1010.0 |
| 20260904211525 | 80 | 313 | 3.0 | 8.0 | 0.00 | 0.34 | 0.02 | 46 | 1010.1 |
| 20260904210026 | 79 | 328 | 2.0 | 5.0 | 0.00 | 0.34 | 0.02 | 46 | 1010.2 |
| 20260904204521 | 78 | 321 | 1.0 | 8.0 | 0.00 | 0.34 | 0.02 | 47 | 1010.3 |
| 20260904203008 | 79 | 340 | 1.0 | 8.0 | 0.00 | 0.34 | 0.02 | 47 | 1010.5 |
| 20260904201506 | 80 | 336 | 3.0 | 8.0 | 0.00 | 0.34 | 0.02 | 46 | 1010.5 |
| 20260904200119 | 80 | 297 | 2.0 | 8.0 | 0.00 | 0.34 | 0.02 | 47 | 1010.8 |
| 20260904194606 | 81 | 351 | 4.0 | 9.0 | 0.00 | 0.34 | 0.02 | 45 | 1010.9 |
| 20260904193053 | 82 | 307 | 3.0 | 11.0 | 0.00 | 0.34 | 0.02 | 45 | 1010.9 |
| 20260904191553 | 83 | 331 | 4.0 | 10.0 | 0.00 | 0.34 | 0.02 | 45 | 1011.0 |
| 20260904190042 | 82 | 346 | 3.0 | 10.0 | 0.00 | 0.34 | 0.02 | 45 | 1011.1 |
| 20260904184537 | 82 | 310 | 2.0 | 13.0 | 0.00 | 0.34 | 0.02 | 44 | 1011.2 |
| 20260904183033 | 81 | 305 | 4.0 | 12.0 | 0.00 | 0.34 | 0.02 | 44 | 1011.2 |
| 20260904181528 | 81 | 346 | 5.0 | 14.0 | 0.00 | 0.34 | 0.02 | 43 | 1011.5 |
| 20260904180024 | 81 | 294 | 4.0 | 11.0 | 0.00 | 0.34 | 0.02 | 40 | 1011.6 |
| 20260904174527 | 80 | 327 | 3.0 | 11.0 | 0.00 | 0.34 | 0.02 | 39 | 1011.8 |
| 20260904173014 | 80 | 302 | 3.0 | 11.0 | 0.00 | 0.34 | 0.02 | 39 | 1011.8 |
| 20260904171518 | 81 | 342 | 2.0 | 9.0 | 0.00 | 0.34 | 0.02 | 39 | 1011.8 |
| 20260904170005 | 82 | 15 | 4.0 | 8.0 | 0.00 | 0.34 | 0.02 | 38 | 1012.0 |
| 20260904164502 | 81 | 344 | 2.0 | 9.0 | 0.00 | 0.34 | 0.02 | 35 | 1011.9 |
| 20260904163056 | 79 | 302 | 3.0 | 9.0 | 0.00 | 0.34 | 0.02 | 34 | 1011.9 |
| 20260904161552 | 79 | 348 | 1.0 | 9.0 | 0.00 | 0.34 | 0.02 | 33 | 1012.0 |
| 20260904160048 | 80 | 283 | 3.0 | 9.0 | 0.00 | 0.34 | 0.02 | 33 | 1012.0 |
| 20260904154544 | 79 | 295 | 2.0 | 7.0 | 0.00 | 0.34 | 0.02 | 31 | 1012.1 |
| 20260904153040 | 80 | 360 | 1.0 | 10.0 | 0.00 | 0.34 | 0.02 | 28 | 1012.1 |
| 20260904151535 | 79 | 321 | 3.0 | 9.0 | 0.00 | 0.34 | 0.02 | 24 | 1012.2 |
| 20260904150056 | 78 | 343 | 2.0 | 9.0 | 0.00 | 0.34 | 0.02 | 20 | 1012.2 |
| 20260904144526 | 78 | 351 | 3.0 | 12.0 | 0.00 | 0.34 | 0.02 | 12 | 1012.3 |
| 20260904143022 | 76 | 333 | 2.0 | 5.0 | 0.00 | 0.34 | 0.02 | 2 | 1012.4 |
| 20260904141520 | 76 | 269 | 3.0 | 8.0 | 0.00 | 0.34 | 0.02 | 1 | 1012.4 |
| 20260904140014 | 74 | 243 | 3.0 | 7.0 | 0.00 | 0.34 | 0.02 | 1 | 1012.4 |
| 20260904134533 | 73 | 319 | 1.0 | 6.0 | 0.00 | 0.34 | 0.02 | 1 | 1012.4 |
| 20260904133004 | 73 | 326 | 3.0 | 6.0 | 0.00 | 0.34 | 0.02 | 1 | 1012.2 |
| 20260904131559 | 71 | 338 | 2.0 | 5.0 | 0.00 | 0.34 | 0.02 | 1 | 1012.1 |
| 20260904130055 | 70 | 334 | 2.0 | 5.0 | 0.00 | 0.34 | 0.02 | 1 | 1012.4 |
| 20260904124551 | 69 | 276 | 2.0 | 4.0 | 0.00 | 0.34 | 0.02 | 1 | 1012.4 |
| 20260904123046 | 68 | 276 | 1.0 | 3.0 | 0.00 | 0.34 | 0.02 | 1 | 1012.4 |
| 20260904121542 | 67 | 355 | 1.0 | 4.0 | 0.00 | 0.34 | 0.02 | 1 | 1012.2 |
| 20260904120038 | 67 | 294 | 1.0 | 3.0 | 0.00 | 0.34 | 0.02 | 1 | 1012.2 |
| 20260904114538 | 67 | 284 | 0.0 | 4.0 | 0.00 | 0.34 | 0.02 | 1 | 1012.1 |
| 20260904113029 | 67 | 196 | 1.0 | 3.0 | 0.00 | 0.34 | 0.02 | 1 | 1012.1 |
| 20260904111528 | 67 | 273 | 0.0 | 4.0 | 0.00 | 0.34 | 0.02 | 1 | 1012.1 |
| 20260904110021 | 68 | 261 | 0.0 | 4.0 | 0.00 | 0.34 | 0.02 | 1 | 1011.9 |
| 20260904104515 | 68 | 245 | 1.0 | 5.0 | 0.00 | 0.34 | 0.02 | 1 | 1011.8 |
| 20260904103011 | 68 | 288 | 0.0 | 1.0 | 0.00 | 0.34 | 0.02 | 1 | 1011.6 |
| 20260904101506 | 68 | 288 | 0.0 | 4.0 | 0.00 | 0.34 | 0.02 | 1 | 1011.6 |
| 20260904100002 | 68 | 288 | 0.0 | 2.0 | 0.00 | 0.34 | 0.02 | 1 | 1011.5 |
| 20260904094603 | 68 | 288 | 0.0 | 2.0 | 0.00 | 0.34 | 0.02 | 1 | 1011.4 |
| 20260904093104 | 68 | 288 | 0.0 | 3.0 | 0.00 | 0.34 | 0.02 | 1 | 1011.3 |
| 20260904091549 | 68 | 288 | 0.0 | 2.0 | 0.01 | 0.34 | 0.02 | 1 | 1011.4 |
| 20260904090045 | 68 | 288 | 0.0 | 1.0 | 0.01 | 0.34 | 0.02 | 1 | 1011.2 |
| 20260904084540 | 69 | 288 | 0.0 | 1.0 | 0.01 | 0.34 | 0.02 | 1 | 1011.1 |
| 20260904083042 | 69 | 288 | 0.0 | 2.0 | 0.01 | 0.34 | 0.02 | 1 | 1011.0 |
| 20260904081531 | 69 | 287 | 0.0 | 2.0 | 0.00 | 0.33 | 0.01 | 1 | 1010.8 |
| 20260904080027 | 69 | 288 | 0.0 | 1.0 | 0.00 | 0.33 | 0.01 | 1 | 1010.5 |
| 20260904074525 | 69 | 288 | 0.0 | 2.0 | 0.00 | 0.33 | 0.01 | 1 | 1010.4 |
| 20260904073023 | 70 | 292 | 0.0 | 1.0 | 0.00 | 0.33 | 0.01 | 1 | 1010.2 |
| 20260904071516 | 70 | 289 | 0.0 | 1.0 | 0.00 | 0.33 | 0.01 | 1 | 1010.2 |
| 20260904070010 | 70 | 289 | 0.0 | 2.0 | 0.00 | 0.33 | 0.01 | 1 | 1010.4 |
| 20260904064505 | 70 | 289 | 0.0 | 2.0 | 0.00 | 0.33 | 0.01 | 1 | 1010.3 |
| 20260904063001 | 71 | 289 | 0.0 | 1.0 | 0.00 | 0.33 | 0.01 | 1 | 1010.3 |
| 20260904061557 | 71 | 289 | 0.0 | 0.0 | 0.00 | 0.33 | 0.01 | 1 | 1010.3 |
| 20260904060053 | 71 | 289 | 0.0 | 1.0 | 0.00 | 0.33 | 0.01 | 1 | 1010.4 |
| 20260904054551 | 71 | 292 | 0.0 | 1.0 | 0.00 | 0.33 | 0.01 | 1 | 1010.5 |
| 20260904053044 | 71 | 290 | 0.0 | 1.0 | 0.00 | 0.33 | 0.01 | 1 | 1010.7 |
| 20260904051540 | 72 | 288 | 0.0 | 2.0 | 0.01 | 0.39 | 0.01 | 1 | 1010.7 |
| 20260904050035 | 72 | 288 | 0.0 | 5.0 | 0.09 | 0.39 | 0.01 | 1 | 1010.8 |
| 20260904044532 | 72 | 17 | 0.0 | 1.0 | 0.26 | 0.39 | 0.01 | 1 | 1011.0 |
| 20260904043026 | 73 | 17 | 1.0 | 2.0 | 0.28 | 0.39 | 0.01 | 1 | 1011.1 |
| 20260904041524 | 73 | 45 | 2.0 | 4.0 | 0.31 | 0.53 | 0.38 | 1 | 1010.8 |
| 20260904040018 | 74 | 252 | 1.0 | 7.0 | 0.24 | 0.45 | 0.30 | 1 | 1011.2 |
| 20260904034518 | 74 | 246 | 0.0 | 2.0 | 0.06 | 0.27 | 0.12 | 1 | 1010.9 |
| 20260904033009 | 74 | 246 | 0.0 | 2.0 | 0.04 | 0.25 | 0.10 | 1 | 1010.6 |
| 20260904031505 | 74 | 246 | 0.0 | 1.0 | 0.01 | 0.45 | 0.07 | 1 | 1010.6 |
| 20260904030001 | 74 | 246 | 0.0 | 1.0 | 0.00 | 0.44 | 0.06 | 1 | 1010.7 |
| 20260904024558 | 74 | 246 | 0.0 | 1.0 | 0.00 | 0.44 | 0.06 | 1 | 1010.7 |
| 20260904023058 | 74 | 246 | 0.0 | 2.0 | 0.00 | 0.44 | 0.06 | 1 | 1010.5 |
| 20260904021547 | 74 | 246 | 0.0 | 1.0 | 0.00 | 0.78 | 0.06 | 1 | 1010.9 |
| 20260904020043 | 74 | 246 | 0.0 | 0.0 | 0.00 | 0.78 | 0.06 | 1 | 1011.0 |